This is the latest recevied weather packets stored in our database for station/object HB9GPU-10. If no packets are shown the sender has not sent any weather packets the latest 10 day(s).
| Time | Temp. | Humidity | Pressure | Rain* | Wind** | Luminosity | Snow |
|---|---|---|---|---|---|---|---|
| 1787835714 | 31.11° C | 24% | 1016.4 hPa | - | - | - | - |
| 1787834813 | 32.22° C | 21% | 1016.4 hPa | - | - | - | - |
| 1787833913 | 32.22° C | 22% | 1016.5 hPa | - | - | - | - |
| 1787833013 | 32.22° C | 21% | 1016.7 hPa | - | - | - | - |
| 1787832113 | 31.67° C | 22% | 1016.8 hPa | - | - | - | - |
| 1787831213 | 31.67° C | 23% | 1016.8 hPa | - | - | - | - |
| 1787830312 | 31.11° C | 21% | 1016.9 hPa | - | - | - | - |
| 1787829412 | 31.67° C | 22% | 1017.1 hPa | - | - | - | - |
| 1787828512 | 31.67° C | 21% | 1017.3 hPa | - | - | - | - |
| 1787827612 | 31.67° C | 22% | 1017.4 hPa | - | - | - | - |
| 1787826712 | 31.11° C | 23% | 1017.4 hPa | - | - | - | - |
| 1787825812 | 30.56° C | 24% | 1017.6 hPa | - | - | - | - |
| 1787824911 | 30° C | 24% | 1017.8 hPa | - | - | - | - |
| 1787824011 | 30° C | 24% | 1018 hPa | - | - | - | - |
| 1787823111 | 29.44° C | 25% | 1018.1 hPa | - | - | - | - |
| 1787822211 | 29.44° C | 25% | 1018 hPa | - | - | - | - |
| 1787821311 | 29.44° C | 25% | 1018.2 hPa | - | - | - | - |
| 1787820411 | 27.78° C | 30% | 1018.4 hPa | - | - | - | - |
| 1787819510 | 28.33° C | 31% | 1018.4 hPa | - | - | - | - |
| 1787818610 | 26.67° C | 33% | 1018.6 hPa | - | - | - | - |
| 1787817710 | 26.11° C | 34% | 1018.7 hPa | - | - | - | - |
| 1787816810 | 26.67° C | 33% | 1018.6 hPa | - | - | - | - |
| 1787815910 | 26.11° C | 34% | 1018.7 hPa | - | - | - | - |
| 1787815010 | 26.11° C | 34% | 1018.6 hPa | - | - | - | - |
| 1787814109 | 26.11° C | 34% | 1018.6 hPa | - | - | - | - |
* Rain since midnight (hover to see other rain measurements)
** Current wind speed in m/s (hover to see current wind gust speed)